Wind_Speed
35 35 35 35 35 36 37 38 39 39 39 40 42 43 43 44 45 45 46 48 50 52 54 56 58 59 61 62 62 61 60 59 59 58 57 57 57 58
36 35 36 35 36 36 37 38 39 40 40 41 42 43 43 45 45 46 47 49 52 54 56 58 60 61 62 62 61 60 59 58 58 58 58 58 58 58
36 36 36 36 37 37 38 39 40 41 42 42 43 43 44 45 45 47 49 51 54 56 58 60 61 62 62 61 59 58 58 58 58 58 58 59 59 58
37 36 36 37 37 38 38 39 40 41 42 42 43 43 44 45 46 48 50 53 55 57 59 61 61 61 61 60 59 58 57 58 58 59 60 59 58 57
36 36 36 37 37 38 39 40 40 42 42 42 43 43 44 46 47 49 52 54 56 58 59 60 61 60 60 59 58 57 58 59 59 59 59 58 57 56
36 36 37 37 37 38 39 40 41 41 41 42 42 43 46 47 49 50 52 55 56 58 59 60 59 59 59 59 58 58 59 59 59 59 58 57 56 55
37 37 37 37 37 38 39 39 40 40 41 42 43 45 46 47 49 51 53 55 56 58 59 59 59 59 59 58 58 58 59 59 59 58 57 57 55 54
36 35 36 37 37 37 38 39 39 40 40 41 43 45 46 48 50 52 54 55 56 57 59 59 58 58 58 58 58 58 59 59 59 58 56 56 54 52
36 35 35 36 36 37 38 38 39 40 41 42 43 45 47 49 51 53 54 55 56 58 58 57 58 59 58 58 58 58 58 58 58 57 56 54 52 50
36 35 35 35 36 37 37 38 39 40 41 42 44 46 47 50 51 53 54 56 57 58 57 58 58 59 60 58 57 58 58 58 58 56 54 52 49 46
35 34 34 35 35 36 37 38 38 39 41 42 44 45 47 49 51 53 54 55 57 57 57 58 58 58 59 58 57 57 57 57 56 54 51 48 46 43
35 34 34 35 35 36 37 37 38 39 41 42 43 45 47 49 51 52 54 55 56 56 57 58 58 58 57 57 57 57 57 56 53 50 48 45 43 41
34 34 34 35 35 36 36 37 37 39 41 42 44 45 47 48 50 52 53 55 56 56 57 57 57 57 57 56 55 56 55 53 51 48 46 43 40 39
33 34 34 34 35 36 35 36 37 38 40 42 43 45 46 48 50 52 53 54 55 56 56 56 56 56 56 54 53 53 52 50 47 44 42 40 39 38
33 33 33 34 34 33 34 35 37 38 40 41 43 44 46 48 51 52 53 54 55 55 55 56 56 56 55 53 51 49 48 46 44 41 39 38 37 35
32 32 32 32 32 32 33 35 36 38 40 41 42 44 46 49 50 51 53 53 55 55 55 55 55 55 54 51 49 47 45 43 41 39 37 36 34 32
30 30 30 30 30 32 33 34 36 37 38 39 41 44 46 48 50 51 52 53 54 54 54 54 54 53 52 50 47 46 44 41 40 38 36 34 32 30
28 28 28 28 29 30 32 33 35 36 37 39 42 44 46 49 50 51 52 53 53 53 53 52 52 51 50 48 46 44 43 41 38 36 34 32 30 28
26 26 27 28 29 30 31 32 34 35 37 39 41 44 46 48 50 50 52 52 52 52 51 50 49 48 47 46 46 43 41 39 36 34 32 30 28 26
25 26 26 27 28 29 30 31 33 35 37 39 41 44 46 48 49 50 51 51 51 51 50 49 48 47 46 45 44 42 39 36 34 32 30 28 26 24
24 24 25 26 27 28 29 30 32 34 37 39 41 44 46 48 49 50 50 51 51 49 48 46 46 45 45 44 42 40 38 35 33 30 28 26 24 22
23 23 24 24 25 27 28 30 33 35 37 39 41 43 46 48 48 49 50 50 49 47 45 44 44 44 43 42 40 38 35 34 32 29 26 24 22 21
22 22 22 24 25 27 28 31 33 35 37 39 41 43 46 47 47 48 49 49 46 44 43 43 43 43 42 41 39 36 34 32 30 28 25 22 21 20
Wind_Direction
271 275 278 281 284 288 291 294 297 298 300 302 304 305 307 308 308 309 310 311 312 313 313 313 314 314 314 313 313 312 312 311 311 311 310 310 309 308
270 274 278 281 285 288 291 294 297 299 301 303 304 305 306 307 308 309 309 311 312 313 313 314 314 314 314 314 313 312 312 312 312 312 311 311 310 309
270 274 278 281 284 288 291 294 297 299 301 303 304 304 305 307 308 309 309 311 312 313 314 314 315 315 315 315 314 313 313 313 313 313 312 312 311 310
271 274 277 281 284 287 291 294 296 299 301 303 304 304 306 307 308 308 309 311 313 314 314 315 316 316 316 316 315 314 314 314 314 314 313 312 311 310
270 274 277 281 284 287 290 294 297 299 301 302 303 304 306 307 308 309 310 312 313 314 315 316 316 316 316 316 316 315 315 315 315 315 314 313 312 311
270 273 276 281 284 287 291 294 297 298 300 302 303 304 306 307 309 310 311 313 314 315 317 317 317 317 317 317 316 315 315 316 316 316 315 314 313 312
271 274 276 280 284 288 292 294 296 298 300 302 304 305 306 308 310 311 313 314 315 317 317 318 317 317 317 317 316 316 316 317 317 316 316 315 314 313
272 274 277 281 285 289 292 295 296 299 301 302 304 306 308 310 311 312 314 315 316 317 318 318 318 318 318 317 317 317 317 317 318 317 316 316 315 314
272 274 278 282 286 289 292 294 296 299 301 303 305 307 309 311 313 314 315 316 317 318 319 319 319 319 318 318 318 318 318 318 318 318 317 317 316 316
271 275 278 282 286 289 291 294 297 299 301 304 306 308 310 313 314 315 317 318 319 320 320 319 319 319 319 318 319 319 319 319 319 318 318 317 317 317
271 274 278 281 285 288 291 295 298 300 302 305 307 309 311 313 315 316 317 318 320 320 321 320 320 320 320 320 320 320 320 321 320 320 320 320 319 319
271 274 277 281 285 289 292 295 298 300 303 306 308 310 312 314 316 317 318 319 320 321 321 321 322 322 321 321 321 321 322 322 322 321 321 321 321 321
271 274 278 282 286 289 292 295 298 300 304 306 308 311 313 315 317 319 320 320 321 322 323 323 323 323 323 322 322 322 323 323 323 322 323 323 323 322
270 274 278 282 285 288 292 296 299 302 305 307 310 312 314 317 319 320 320 321 323 324 324 325 325 324 324 324 324 324 324 325 325 324 324 324 325 325
269 273 278 282 285 289 292 296 299 303 306 308 311 314 316 319 321 321 322 323 324 325 326 326 326 326 326 326 326 326 326 326 326 326 326 326 327 327
269 274 278 282 286 290 293 296 300 304 306 309 313 315 318 320 322 322 324 325 326 326 327 327 328 328 328 329 329 328 328 328 328 328 328 328 328 329
270 275 278 282 287 291 293 297 301 304 307 311 314 317 319 321 322 323 325 326 327 327 328 328 329 329 329 330 330 330 330 330 329 329 330 330 330 330
270 276 280 284 289 292 296 299 302 305 309 313 316 318 320 322 324 324 325 327 327 328 328 329 330 330 330 330 331 331 331 331 330 330 331 332 332 333
271 276 282 286 290 293 297 300 303 307 311 315 318 320 322 324 325 325 326 328 328 328 329 330 330 331 331 331 331 332 332 332 333 332 332 333 334 335
273 279 284 288 291 294 298 301 305 310 313 316 319 321 323 325 326 327 328 329 329 329 330 330 331 332 333 333 332 332 333 334 334 334 334 335 336 337
275 281 284 288 292 296 300 303 307 311 315 318 320 322 324 326 327 328 329 330 330 330 331 332 333 333 334 335 335 334 334 334 335 336 336 337 337 337
275 281 285 288 293 298 302 306 310 314 316 319 321 323 325 327 328 329 330 330 331 331 332 333 334 335 336 336 337 336 335 336 336 337 338 338 338 339
275 280 285 290 295 300 304 309 312 315 317 320 322 325 327 329 329 330 331 332 332 332 333 334 335 336 337 338 338 338 337 337 337 338 340 341 342 343
Height
5752 5752 5752 5751 5750 5748 5746 5744 5742 5739 5736 5731 5726 5721 5716 5711 5706 5701 5695 5690 5683 5677 5669 5662 5654 5646 5637 5628 5619 5609 5601 5593 5584 5577 5569 5561 5554 5546
5744 5744 5744 5743 5742 5740 5738 5736 5733 5730 5727 5723 5718 5713 5708 5703 5697 5692 5686 5680 5673 5666 5658 5650 5642 5633 5624 5614 5604 5596 5587 5579 5571 5563 5555 5547 5539 5531
5737 5736 5736 5735 5734 5732 5730 5727 5724 5721 5718 5714 5709 5705 5700 5694 5688 5683 5677 5670 5663 5655 5647 5638 5629 5620 5610 5600 5591 5583 5575 5566 5558 5550 5541 5533 5524 5516
5729 5729 5728 5727 5726 5724 5722 5719 5716 5713 5709 5705 5701 5696 5691 5686 5680 5674 5667 5660 5653 5644 5635 5626 5616 5607 5597 5588 5579 5571 5562 5554 5545 5536 5528 5519 5511 5502
5721 5721 5720 5719 5718 5716 5714 5711 5708 5704 5701 5697 5693 5687 5682 5677 5671 5665 5657 5650 5641 5633 5624 5614 5604 5594 5585 5576 5567 5558 5550 5541 5533 5523 5514 5505 5496 5488
5713 5713 5712 5711 5710 5708 5706 5703 5700 5696 5692 5688 5684 5679 5674 5668 5662 5656 5648 5640 5631 5621 5612 5603 5593 5583 5573 5564 5556 5547 5538 5529 5519 5510 5501 5491 5483 5474
5705 5705 5704 5703 5702 5700 5698 5695 5692 5688 5684 5680 5676 5671 5665 5659 5653 5646 5638 5630 5621 5611 5601 5592 5582 5573 5562 5553 5543 5534 5525 5516 5507 5497 5487 5478 5469 5461
5697 5697 5696 5695 5693 5692 5689 5687 5684 5680 5676 5672 5667 5662 5656 5650 5643 5636 5628 5621 5613 5603 5592 5581 5571 5561 5551 5542 5532 5522 5513 5503 5494 5484 5475 5466 5457 5448
5689 5689 5688 5687 5685 5683 5681 5678 5675 5672 5668 5664 5659 5653 5647 5641 5634 5626 5617 5609 5601 5591 5581 5571 5561 5551 5540 5530 5520 5511 5501 5491 5482 5472 5463 5454 5445 5437
5681 5681 5680 5679 5677 5675 5673 5670 5667 5664 5660 5655 5650 5644 5638 5631 5624 5616 5607 5598 5589 5580 5570 5561 5550 5540 5529 5519 5509 5499 5489 5480 5470 5460 5451 5442 5434 5426
5673 5673 5672 5671 5669 5667 5665 5663 5659 5655 5651 5646 5641 5635 5628 5621 5614 5606 5597 5588 5579 5569 5559 5550 5540 5530 5519 5508 5498 5488 5478 5468 5459 5449 5440 5431 5424 5416
5665 5664 5664 5663 5661 5659 5657 5654 5651 5647 5642 5637 5632 5626 5619 5612 5604 5596 5587 5578 5569 5560 5549 5539 5529 5519 5510 5499 5487 5477 5467 5457 5447 5439 5430 5422 5415 5408
5656 5656 5656 5655 5653 5651 5648 5646 5642 5638 5634 5629 5623 5616 5610 5602 5594 5586 5577 5569 5559 5549 5539 5529 5519 5508 5498 5488 5478 5466 5457 5447 5438 5429 5421 5414 5407 5400
5648 5648 5647 5646 5645 5643 5640 5637 5634 5630 5625 5620 5614 5607 5601 5593 5585 5577 5568 5559 5549 5539 5529 5519 5508 5498 5488 5478 5468 5458 5447 5438 5430 5421 5414 5406 5400 5393
5640 5640 5639 5638 5637 5635 5632 5629 5625 5621 5616 5611 5605 5599 5592 5584 5576 5567 5558 5549 5539 5529 5519 5509 5498 5488 5478 5468 5459 5449 5440 5431 5422 5415 5407 5400 5394 5387
5632 5632 5631 5630 5629 5626 5624 5621 5617 5613 5608 5602 5596 5590 5583 5575 5567 5558 5549 5539 5529 5519 5509 5499 5489 5478 5468 5458 5449 5440 5431 5424 5416 5408 5401 5394 5388 5381
5624 5624 5624 5622 5621 5619 5616 5613 5609 5605 5600 5594 5588 5582 5574 5567 5558 5549 5540 5531 5521 5511 5501 5490 5480 5469 5460 5451 5442 5433 5424 5416 5409 5402 5396 5389 5382 5376
5617 5617 5616 5615 5613 5611 5608 5605 5601 5597 5592 5586 5580 5573 5566 5558 5550 5541 5532 5522 5513 5503 5493 5483 5473 5462 5452 5442 5436 5428 5419 5411 5403 5396 5390 5384 5378 5372
5609 5609 5608 5607 5605 5603 5600 5597 5593 5589 5584 5578 5572 5565 5558 5550 5541 5532 5523 5514 5504 5495 5485 5476 5466 5457 5447 5437 5428 5421 5414 5406 5398 5392 5385 5379 5374 5369
5602 5602 5601 5600 5598 5596 5593 5590 5586 5581 5576 5570 5564 5557 5550 5542 5533 5524 5515 5506 5496 5487 5477 5468 5459 5450 5441 5432 5423 5415 5408 5401 5394 5388 5381 5375 5370 5366
5595 5595 5594 5593 5591 5588 5586 5582 5578 5574 5568 5563 5557 5549 5542 5534 5525 5516 5507 5498 5489 5479 5470 5461 5453 5444 5435 5426 5418 5410 5402 5396 5390 5384 5378 5373 5368 5364
5588 5588 5587 5586 5584 5581 5579 5575 5571 5566 5561 5555 5549 5542 5534 5526 5518 5509 5500 5491 5481 5472 5464 5455 5447 5438 5430 5421 5413 5405 5398 5392 5385 5380 5375 5370 5365 5361
5582 5581 5580 5579 5577 5575 5572 5568 5564 5559 5554 5548 5541 5534 5527 5519 5510 5501 5493 5483 5474 5466 5458 5450 5442 5433 5425 5417 5409 5402 5395 5388 5382 5377 5373 5368 5363 5359